Tracking 25405 objects as of 26-Jan-2022
HD Live streaming from Space Station
objects crossing your sky now

STARLINK-1891

Track STARLINK-1891 now!
10-day predictions
STARLINK-1891 is classified as:


NORAD ID: 47174
Int'l Code: 2020-088BE
Perigee: 552.9 km
Apogee: 555.8 km
Inclination: 53.1 °
Period: 95.6 minutes
Semi major axis: 6925 km
RCS: Unknown
Launch date: November 25, 2020
Source: United States (US)
Launch site: AIR FORCE EASTERN TEST RANGE (AFETR)
aabbcc
Your satellite tracking list
Your tracking list is empty




NASA's NSSDC Master Catalog

Two Line Element Set (TLE):
1 47174U 20088BE  22025.83666076  .00000750  00000-0  69268-4 0  9991
2 47174  53.0540 212.6858 0002045  79.7654 280.3566 15.06399954 65173
Source of the keplerian elements: AFSPC